Theta_e
321 323 325 325 326 327 333 334 328 329 330 323 318 321 318 319 323 319 319 319 318 317 314 314 316 316 318 319 317 316 316 318 319 330 331 318 316 316 319 322 324 327 328 329 329 330 328 329 330 330 331 332 333 335 337 338 339 339 339 339 338 340 340 340 339 339 339 339 339 339 339 340 341 341 341 340 340 340 339 339 337 337 336 335 334 334 334 332 329 329 330 332 336 336 334 335 337
322 325 327 326 326 327 334 336 334 332 330 320 318 321 316 319 321 320 324 321 319 314 312 313 314 314 314 315 315 317 316 315 315 320 317 313 317 314 315 316 318 320 322 324 325 327 327 328 329 329 329 330 331 332 334 335 337 338 338 338 338 339 340 340 338 338 337 337 337 338 338 339 341 342 341 340 341 340 340 341 341 340 339 337 336 336 335 336 337 336 334 331 332 332 330 331 334
324 327 326 327 328 329 338 336 331 332 329 322 324 326 317 318 321 323 325 319 316 313 314 315 315 313 312 315 315 318 317 313 313 317 314 312 314 312 311 311 312 314 315 317 319 320 322 323 325 326 327 328 328 330 331 331 333 335 336 337 338 338 339 339 338 339 338 336 335 336 336 337 338 340 340 340 340 339 341 341 341 340 340 340 338 338 338 339 339 339 339 338 337 334 330 328 330
322 326 325 328 330 334 352 343 333 334 327 324 323 326 324 322 323 324 323 319 315 314 315 317 317 312 313 316 314 316 316 313 312 315 314 309 310 309 308 309 310 311 312 313 313 315 316 318 320 322 323 325 325 326 327 328 329 331 332 334 335 336 337 337 337 338 339 338 337 337 336 336 337 338 339 339 339 339 340 340 339 339 339 339 339 339 339 340 340 340 340 340 340 339 337 334 331
319 323 322 327 329 331 345 335 332 333 323 325 321 322 332 329 325 322 318 317 315 314 315 317 316 311 313 313 313 316 313 313 312 312 313 307 307 307 306 308 309 310 310 309 310 312 313 315 317 318 320 322 322 323 324 325 326 327 329 330 331 332 333 335 335 336 337 337 338 338 337 338 338 337 338 338 339 338 338 338 338 338 339 339 339 338 338 338 339 340 340 340 340 339 339 339 337
320 323 324 323 321 322 329 322 322 324 320 328 324 320 330 329 323 320 316 313 313 315 315 316 315 312 312 309 310 312 309 312 311 310 310 306 305 306 306 307 308 309 309 307 307 310 312 313 314 315 316 317 318 319 320 321 322 323 325 326 327 328 329 330 332 333 334 335 336 336 337 337 338 337 336 336 338 339 337 337 336 337 338 339 339 338 336 336 335 336 338 340 340 340 339 338 338
321 323 328 325 322 323 329 325 322 323 318 321 325 321 322 324 321 318 316 313 314 315 314 313 312 314 313 310 310 308 307 310 309 309 308 305 304 305 306 306 306 307 306 305 305 308 311 311 311 311 311 312 313 314 316 316 318 319 320 321 322 324 325 326 327 329 330 331 332 334 335 336 336 337 336 335 337 338 337 335 334 335 336 337 338 338 336 335 333 333 336 339 339 340 340 338 336
321 322 328 333 334 333 332 326 322 324 318 314 321 321 319 322 318 316 316 314 314 314 313 311 311 315 313 310 311 307 306 307 306 306 305 304 304 304 305 304 304 304 304 303 302 304 305 306 305 306 306 308 309 309 309 309 310 312 314 316 317 319 321 322 323 324 326 327 328 329 331 332 334 335 336 336 336 335 336 335 335 334 335 336 336 336 336 334 334 334 336 337 338 339 339 338 336
319 320 324 331 334 333 329 321 317 320 318 315 316 318 320 319 316 315 316 314 313 313 313 311 311 316 312 308 310 307 305 305 304 304 304 304 304 304 304 303 302 302 302 302 301 302 302 302 302 303 303 303 304 304 303 302 303 304 306 308 310 313 314 316 318 320 321 323 324 325 326 327 329 331 333 334 335 335 334 334 334 334 334 334 334 334 334 332 332 334 335 335 336 338 339 338 338
319 321 324 332 332 327 323 319 320 320 316 318 316 316 318 315 316 315 317 315 313 314 312 310 311 312 310 309 309 306 304 304 303 303 303 304 304 304 303 302 301 301 301 302 302 301 301 301 301 301 301 301 301 301 301 300 300 300 301 302 303 305 307 309 311 313 316 318 320 321 322 323 325 327 329 331 333 334 334 333 333 333 333 333 334 333 331 330 329 330 333 334 334 335 339 339 339
325 330 333 337 330 323 322 322 322 319 317 320 317 317 316 314 316 314 314 314 313 314 311 311 311 309 308 308 308 304 302 302 302 302 302 303 304 303 303 301 300 300 300 301 301 300 299 298 298 299 298 299 298 298 298 298 299 298 299 298 299 300 301 302 304 306 310 314 316 317 319 320 322 323 325 326 329 331 332 333 334 333 331 332 332 332 330 329 327 328 330 333 333 333 335 337 338
326 334 345 343 328 321 323 324 319 319 326 324 315 315 316 314 315 313 313 313 312 313 310 311 311 309 310 308 306 303 300 301 300 301 301 302 303 303 302 301 299 299 299 299 299 298 297 297 297 297 297 297 296 297 296 297 297 297 297 297 297 297 298 299 300 301 304 308 311 312 314 317 319 320 321 322 324 326 328 330 331 333 333 332 331 331 330 329 328 328 329 330 332 332 332 332 333
331 334 346 333 323 323 321 322 318 322 326 322 315 313 314 314 315 313 315 314 312 313 310 308 309 311 312 308 306 303 300 299 299 300 301 301 302 302 302 300 299 298 298 297 297 296 297 297 297 297 297 296 296 296 296 297 297 297 297 296 297 297 297 297 298 299 300 302 305 307 309 312 315 317 319 320 321 322 323 324 325 328 330 332 333 332 330 329 328 327 328 328 330 332 332 331 331
330 336 344 326 320 325 320 319 319 321 318 317 318 313 313 312 312 312 314 316 312 311 308 305 307 311 310 305 305 304 301 299 299 299 300 300 301 301 300 299 298 297 297 297 296 296 296 296 296 297 296 296 296 296 296 297 297 297 297 297 297 296 297 297 297 298 298 299 300 302 304 307 309 313 315 316 318 319 320 321 322 324 326 328 330 331 331 331 329 328 328 328 329 330 331 331 331
323 337 347 333 326 323 317 319 323 325 317 316 316 312 314 308 308 312 313 316 311 305 304 303 304 310 310 307 308 305 300 298 298 299 299 299 300 300 299 298 297 297 297 297 296 296 296 296 296 296 296 296 296 296 296 296 296 296 296 296 296 296 297 297 297 297 297 297 298 298 300 301 304 306 309 310 312 315 318 319 320 322 324 325 326 328 329 330 332 331 330 328 328 329 330 331 331
327 341 347 337 329 321 317 319 322 324 318 317 314 311 315 309 307 310 306 308 308 302 302 304 302 305 308 307 306 302 298 298 298 298 298 298 298 298 298 298 297 296 297 297 296 296 295 295 295 295 296 296 295 295 295 295 295 295 295 296 296 296 296 297 297 297 297 297 297 297 298 299 299 301 302 304 305 308 311 315 317 319 322 324 324 325 326 328 329 332 332 330 328 328 329 330 330
334 345 348 337 327 319 317 318 319 321 319 319 314 311 316 312 306 304 301 302 305 302 300 301 298 300 303 302 301 298 298 297 297 298 298 298 298 297 297 297 296 296 296 296 296 296 295 294 295 295 295 295 295 295 295 295 295 295 295 295 295 295 295 296 296 296 296 296 297 297 297 297 297 297 298 299 300 301 303 306 309 312 315 318 320 322 324 325 327 329 331 331 330 329 329 330 330
342 343 338 327 321 318 318 322 321 319 318 317 314 313 317 315 307 303 304 302 301 301 299 299 298 298 298 298 298 297 297 297 296 297 297 298 297 297 296 296 296 296 295 296 296 296 294 294 295 295 295 295 295 295 295 295 294 294 294 294 295 295 295 295 295 295 296 296 296 296 296 296 296 296 296 296 297 297 298 299 300 303 306 309 311 314 316 320 324 326 328 330 331 330 330 331 331
341 338 328 322 324 319 317 322 319 316 316 317 315 313 315 315 309 306 309 304 300 304 301 298 299 298 297 297 297 296 295 296 296 297 297 296 296 296 296 296 295 295 295 295 296 295 294 294 295 295 295 295 295 295 294 294 294 294 294 294 294 294 294 294 294 294 294 295 295 295 295 295 295 296 296 296 296 296 296 296 296 297 299 300 302 305 308 312 316 320 323 326 328 330 331 332 332
328 329 322 323 329 319 314 319 317 316 316 318 315 311 313 311 307 307 310 306 303 305 302 300 300 298 298 297 295 295 294 295 295 296 296 295 295 295 295 296 295 295 295 295 295 294 293 294 294 294 295 295 294 294 294 294 294 294 294 294 294 294 294 294 294 294 294 294 294 295 295 295 295 295 295 295 296 296 296 295 295 295 296 296 297 300 303 305 308 311 316 320 324 327 330 331 331
317 321 319 321 324 317 315 317 317 317 314 318 316 311 312 309 307 308 308 308 307 305 302 302 302 298 298 297 295 293 293 294 295 295 295 295 295 295 294 295 295 295 294 294 295 293 293 294 294 294 294 294 294 294 294 294 293 293 293 294 294 294 294 293 293 293 293 294 294 294 294 294 294 295 295 295 295 296 296 296 295 295 295 295 295 297 298 299 301 305 309 312 317 323 328 330 330
314 317 319 321 319 314 315 316 316 316 312 316 315 312 311 307 307 307 307 313 313 306 302 302 300 297 297 296 294 293 292 292 294 294 294 295 294 295 294 294 294 294 293 294 293 293 293 293 293 294 294 294 294 294 294 293 293 293 293 293 293 293 293 293 293 293 293 293 293 294 294 294 294 294 295 295 295 295 296 296 296 296 296 295 295 296 296 298 302 304 305 306 308 314 320 327 331
315 317 316 319 318 312 314 316 316 314 313 315 314 311 309 307 309 305 306 312 307 301 302 301 298 296 295 294 293 294 294 292 292 293 293 294 294 294 294 293 294 293 293 293 292 292 293 293 293 293 293 293 294 294 293 293 293 292 292 293 293 293 293 293 293 293 293 293 293 293 293 294 294 294 294 295 294 295 295 296 296 296 296 296 296 296 297 301 304 303 303 302 302 305 310 317 325
316 318 316 316 315 313 315 315 316 316 315 314 312 310 309 311 310 304 305 304 299 297 298 297 295 294 293 293 293 294 294 292 293 293 293 293 293 293 293 293 293 292 292 292 292 292 292 292 292 293 293 293 293 293 293 293 292 292 292 292 292 293 293 293 293 293 292 292 292 292 293 293 294 294 294 294 294 294 295 295 295 295 295 296 297 297 299 302 303 302 301 300 300 301 303 307 314
317 317 317 315 313 314 316 315 316 316 313 311 310 311 310 310 307 305 305 300 296 296 295 294 294 293 293 295 295 293 292 292 293 293 293 293 292 292 293 292 292 292 291 291 292 292 292 292 292 292 292 293 293 293 292 292 292 292 292 292 292 292 292 293 292 292 292 292 292 292 292 293 293 293 294 294 294 294 294 295 295 295 295 296 297 298 299 301 301 301 300 299 299 299 300 302 305
315 315 317 315 313 313 313 314 316 316 312 309 310 313 308 304 304 306 303 298 296 296 295 295 294 295 295 295 295 292 291 292 293 293 293 292 292 291 291 292 291 291 291 291 292 292 292 292 292 292 292 292 292 292 292 291 291 291 291 291 291 291 292 292 292 292 292 292 292 292 292 293 293 293 293 293 294 294 294 294 294 294 295 295 296 297 299 300 301 301 300 300 300 300 300 300 301
313 314 316 313 312 312 311 312 315 313 310 309 311 314 309 303 306 310 302 296 296 296 296 295 294 295 295 294 294 292 291 292 293 293 292 292 292 291 291 291 291 291 291 291 292 292 292 292 292 291 291 292 292 292 291 291 291 291 291 291 291 291 291 291 291 291 291 291 291 292 292 292 293 293 293 293 294 294 294 294 294 294 294 295 295 296 298 299 300 300 300 300 300 300 301 301 301
311 312 313 314 315 313 310 310 311 310 309 311 315 313 308 304 309 313 302 295 296 296 296 294 294 295 293 294 294 292 291 292 293 292 292 291 291 290 290 291 291 291 291 291 292 291 292 291 291 291 291 291 291 291 290 290 290 290 290 290 290 290 291 291 291 291 291 291 291 291 292 292 292 292 293 293 293 294 293 294 294 294 294 294 295 296 297 298 299 300 300 300 301 301 301 301 301
311 312 312 316 320 317 311 311 310 309 310 312 314 312 309 309 311 309 299 295 295 295 295 294 294 294 294 294 294 293 291 291 292 292 291 290 290 290 290 291 291 291 291 291 291 291 291 291 291 290 290 290 290 290 290 290 290 290 290 290 290 290 290 290 290 290 290 291 291 291 291 292 292 292 292 293 293 293 293 293 294 294 294 294 295 295 296 297 298 299 299 300 301 301 301 301 301
311 310 312 317 322 319 311 310 310 308 312 311 311 313 314 314 312 303 296 295 295 295 295 294 294 294 294 294 294 294 291 290 291 291 291 290 290 291 291 291 291 291 291 291 291 291 291 291 290 290 290 290 289 289 289 289 289 289 289 289 290 290 290 290 289 290 290 290 290 290 291 291 291 291 291 292 292 293 293 293 293 293 294 294 295 295 296 297 298 298 299 300 301 301 301 301 301
313 310 318 321 318 323 317 310 312 309 310 309 308 313 314 314 313 302 295 295 295 296 295 294 294 294 294 294 294 295 292 290 291 291 290 290 290 291 291 291 291 291 291 291 291 291 291 290 290 289 289 289 289 289 289 289 289 289 289 289 289 289 289 289 289 289 289 289 289 289 290 289 289 290 290 291 291 291 291 291 291 292 293 294 295 296 296 297 298 298 299 300 301 300 301 301 302
319 312 324 326 316 323 321 310 312 311 309 308 309 314 313 313 312 300 295 295 295 296 295 294 294 293 294 294 293 295 293 291 290 290 290 289 290 290 290 291 290 290 290 291 291 290 290 290 289 289 289 289 288 288 288 288 288 288 288 289 289 289 288 289 288 289 289 289 289 289 289 288 289 289 289 289 289 289 289 289 289 290 291 292 294 295 296 297 297 298 298 300 300 300 301 301 302
326 317 319 326 318 317 316 309 311 311 310 309 309 314 313 313 309 298 295 295 295 296 296 294 294 293 293 293 293 294 294 293 291 290 289 289 289 290 290 290 290 290 290 290 290 290 290 289 289 289 288 288 288 288 288 288 288 288 288 289 289 288 288 288 288 288 288 288 288 288 288 288 288 288 288 287 287 287 288 288 288 289 289 290 292 294 295 296 297 298 299 299 300 300 300 301 301
328 322 317 320 317 311 312 311 310 309 310 311 310 311 310 311 309 299 295 295 295 296 296 295 293 293 293 293 293 293 294 294 292 290 289 289 289 289 290 290 290 290 290 290 290 290 289 289 289 288 288 288 288 288 288 288 287 288 288 289 289 288 288 287 288 288 288 288 287 287 287 287 287 287 287 286 286 287 287 287 287 288 288 289 290 292 294 296 297 298 299 299 299 300 300 301 301
319 319 316 315 313 309 311 311 309 308 308 310 311 310 309 309 309 303 296 295 295 296 296 295 294 293 293 293 293 293 293 293 291 289 289 289 288 288 289 290 290 290 290 290 290 289 289 289 288 288 288 288 288 288 287 287 288 288 288 288 288 288 287 286 287 287 287 287 287 287 287 287 286 286 286 285 285 285 286 286 286 287 287 287 288 290 292 295 296 297 298 299 299 299 300 300 301
311 313 313 311 311 309 309 308 307 306 306 308 308 308 308 307 308 307 300 295 295 295 296 295 294 293 293 293 293 292 292 292 290 289 289 288 288 288 289 289 290 290 290 290 289 289 289 288 288 288 288 288 288 288 287 287 288 288 288 287 287 287 286 286 286 287 287 287 287 287 286 286 285 285 285 285 284 284 284 284 285 285 286 286 286 287 289 292 295 296 297 299 299 299 300 300 301
308 310 311 309 309 308 307 307 306 305 307 309 308 307 308 307 307 308 303 297 295 295 295 295 294 293 293 293 292 292 292 291 290 289 288 288 287 288 288 289 289 290 290 289 289 289 288 288 288 288 288 287 287 287 287 287 287 287 286 286 286 286 286 286 286 287 287 287 286 286 286 285 285 284 284 283 283 283 283 283 283 284 285 285 286 286 287 288 292 295 297 298 299 300 300 300 300
307 309 310 309 309 308 307 306 306 305 307 310 310 309 309 308 307 307 305 299 297 296 296 296 295 294 293 293 292 292 292 291 290 289 288 288 287 287 288 288 289 289 289 289 288 288 288 288 288 288 288 287 287 287 287 287 287 286 286 285 285 285 285 285 285 286 286 285 285 285 285 285 284 283 283 283 282 282 282 282 282 283 284 285 285 286 286 287 289 293 297 298 299 300 301 300 300
308 308 308 310 309 310 309 308 308 307 306 310 311 309 307 307 307 306 305 302 299 298 297 297 296 295 294 293 292 292 292 291 291 290 288 287 287 287 288 288 289 289 288 288 288 288 288 288 288 287 287 287 287 287 287 287 286 286 285 285 285 285 285 285 285 285 285 284 284 284 284 284 283 283 283 282 282 282 282 282 282 283 284 285 286 286 287 287 289 292 296 298 299 300 300 300 300
309 308 309 312 310 311 312 311 311 309 307 308 308 306 305 305 305 306 305 302 300 299 298 298 297 296 295 294 293 292 291 291 290 290 288 287 287 287 287 288 288 288 288 288 288 288 288 288 288 287 287 287 287 287 287 286 286 286 286 285 285 285 285 284 284 284 284 283 283 283 283 283 283 282 282 282 282 282 282 282 283 284 284 285 285 286 287 288 289 292 295 297 298 299 299 299 299
316 313 309 312 311 310 311 310 309 309 311 308 306 308 310 307 305 306 305 301 299 299 298 297 297 296 295 294 293 292 291 290 290 290 289 286 286 287 287 287 288 288 287 288 288 288 288 288 287 287 287 287 287 287 286 286 286 286 286 286 285 285 285 284 284 284 283 283 284 284 284 283 283 282 282 281 281 281 281 282 282 283 283 283 283 284 286 289 290 292 294 296 297 298 299 299 299
320 319 311 311 311 310 310 310 308 311 315 309 305 315 318 311 307 306 306 303 301 299 298 297 296 295 295 294 293 292 291 290 290 290 288 286 286 287 287 287 287 287 287 287 288 288 288 288 287 287 287 287 287 286 286 286 286 285 285 285 284 284 283 283 283 283 283 282 283 283 283 283 282 282 281 281 280 280 281 281 281 281 281 281 282 283 285 288 290 291 293 295 296 298 298 298 298
317 317 313 312 310 310 310 310 309 314 316 307 305 314 315 310 310 310 309 308 305 301 298 297 296 295 294 293 293 292 290 290 290 289 288 286 286 286 286 287 287 287 287 287 287 287 287 288 287 287 287 287 286 286 286 286 285 285 284 284 283 283 282 282 282 282 282 282 282 282 282 282 282 281 281 281 280 280 280 280 280 280 280 281 281 282 284 285 287 288 290 293 295 296 297 297 297
319 314 313 312 309 310 309 306 307 311 310 305 306 308 308 308 309 309 308 308 307 303 301 298 295 295 294 293 293 291 290 290 290 290 289 286 285 286 286 286 287 286 287 287 287 287 287 287 287 287 286 286 286 286 285 285 285 284 284 283 283 282 282 282 282 281 281 281 281 282 282 282 281 281 280 280 280 280 279 279 279 279 280 280 281 281 282 283 285 286 288 289 292 294 296 297 297
318 310 308 307 305 307 306 304 307 307 305 307 308 305 307 311 309 307 303 304 307 305 304 302 298 295 294 293 292 291 290 289 289 290 289 285 285 286 286 286 286 286 286 286 287 287 287 287 287 286 286 286 286 285 285 285 284 284 283 283 282 282 282 281 281 281 281 281 281 281 281 281 281 280 280 279 279 279 279 279 279 279 280 280 281 281 282 283 284 285 286 288 290 292 293 296 297
311 307 308 310 311 310 306 305 307 308 309 312 310 306 310 316 314 310 304 305 308 307 304 303 300 297 294 293 292 290 289 289 289 289 286 284 285 286 285 286 286 286 286 286 286 287 286 286 287 286 286 286 285 285 284 284 284 283 283 282 282 282 281 281 281 280 280 280 280 280 280 280 280 280 279 279 279 279 279 279 279 279 280 280 281 281 281 281 282 284 285 287 288 289 291 293 296
307 309 313 315 316 312 310 308 309 312 315 316 312 307 309 315 315 312 310 310 312 311 309 306 302 298 294 293 291 289 289 288 288 288 285 284 285 285 285 285 286 286 286 286 286 286 286 286 286 286 286 285 284 284 284 283 283 283 282 282 281 281 281 280 280 280 280 280 280 279 279 279 279 279 279 278 278 278 278 278 278 278 279 280 281 281 280 280 282 283 285 285 286 287 289 291 294
309 314 316 316 318 317 317 314 312 317 320 318 311 305 307 312 313 310 311 310 308 309 311 310 307 300 294 293 291 289 288 287 287 288 287 284 284 284 284 285 286 286 286 286 286 285 285 285 285 285 285 284 284 283 283 283 282 282 281 281 281 280 280 280 279 279 279 279 279 279 279 279 279 278 278 278 278 278 278 278 278 277 278 279 280 280 280 280 281 283 284 285 285 286 288 290 293
310 313 317 319 321 324 324 318 316 320 320 312 304 305 308 309 310 309 309 309 307 306 305 306 305 300 295 293 291 289 287 287 287 287 287 286 285 283 284 285 286 286 286 286 285 285 285 285 284 284 284 284 283 282 282 282 282 281 281 280 280 280 279 279 279 279 279 279 278 278 278 278 278 278 277 277 278 278 278 277 277 277 277 278 278 279 280 280 280 281 283 285 285 286 288 289 292
308 311 319 323 323 324 323 320 319 319 318 308 301 306 311 310 311 310 307 309 306 302 299 299 299 299 297 293 290 288 286 286 286 285 287 287 284 283 284 285 285 285 285 285 284 284 284 284 283 283 283 283 282 282 282 281 281 281 280 280 279 279 279 278 278 278 278 278 278 278 278 278 277 277 277 277 277 277 277 277 277 277 277 277 277 278 279 279 279 280 283 284 285 286 287 288 290
307 311 317 321 324 325 323 323 322 317 317 310 302 308 315 313 312 308 305 303 299 296 294 294 296 297 296 292 289 287 286 286 286 285 287 286 283 283 284 285 285 285 284 284 284 284 283 283 283 282 282 282 282 281 281 280 280 280 279 279 278 278 278 278 278 278 278 278 277 277 277 277 277 277 277 277 277 277 277 277 277 277 277 277 277 277 278 278 278 280 281 282 284 285 286 286 289
308 309 313 317 321 323 320 320 319 313 313 311 307 310 313 310 307 304 300 297 294 294 293 292 295 294 293 290 288 286 286 286 285 285 287 285 282 283 284 284 284 284 284 283 283 283 283 282 282 282 281 281 281 281 280 280 279 279 278 278 278 277 277 277 277 277 277 277 277 277 277 277 276 276 276 277 277 277 277 277 276 276 276 276 276 277 277 277 278 280 280 281 283 284 284 285 286
309 308 313 313 311 316 318 317 313 309 310 313 311 310 309 309 308 302 299 298 296 296 293 292 293 291 290 289 287 286 286 285 285 285 286 285 282 283 284 284 284 284 283 283 283 283 282 281 281 281 281 281 280 280 279 279 278 278 277 277 277 277 276 276 276 276 276 276 276 276 276 276 276 276 276 276 276 277 276 276 276 276 276 276 276 276 277 278 278 279 279 280 282 283 283 284 285
311 313 313 307 305 311 315 315 313 309 311 314 312 310 310 313 311 302 299 300 300 298 293 290 290 289 289 289 286 286 285 284 285 285 285 284 281 282 284 284 284 283 283 283 283 282 281 281 281 280 280 280 279 279 278 278 277 277 277 277 276 276 276 275 275 275 275 276 276 276 276 276 276 276 276 276 276 276 276 276 276 275 275 275 275 276 276 277 278 278 279 280 281 281 282 283 284
308 311 306 306 311 312 310 311 314 313 313 314 314 313 312 314 315 311 307 305 305 302 294 289 290 289 288 288 286 285 285 285 285 285 285 284 282 282 283 284 284 283 283 283 282 281 281 281 280 280 279 279 278 278 277 277 277 276 276 276 276 275 275 275 275 275 275 275 275 275 275 275 276 276 276 276 276 276 276 275 275 275 275 275 275 275 276 276 276 278 279 280 280 281 281 282 283
301 302 301 304 310 312 311 310 312 316 315 314 316 315 314 316 319 318 314 309 309 305 296 291 291 290 288 287 286 285 285 285 284 284 285 285 282 282 284 284 283 283 282 282 281 281 280 280 279 279 278 278 278 277 277 276 276 276 275 275 275 275 274 274 274 274 274 274 274 274 275 275 275 276 276 276 276 276 276 275 275 274 274 274 275 275 275 275 276 277 278 278 278 279 280 281 282
303 303 303 303 303 307 311 307 307 313 314 313 314 314 314 314 315 316 314 310 309 306 299 293 290 289 288 287 286 286 285 284 284 284 285 285 282 282 284 283 282 282 281 281 280 280 279 279 278 278 277 277 277 277 276 276 275 275 275 274 274 274 274 273 273 273 273 273 274 274 274 275 275 275 275 275 275 275 275 275 274 274 274 274 274 274 275 275 276 276 276 276 276 277 279 281 282
306 306 306 305 304 306 310 308 307 308 310 313 314 314 314 310 308 310 311 310 308 303 298 295 291 289 288 287 286 286 284 284 284 284 285 285 282 281 283 282 282 281 281 280 280 279 279 278 278 277 277 277 276 276 275 275 274 274 274 274 273 273 273 272 272 272 272 273 273 273 274 274 274 274 275 275 274 274 274 274 274 273 273 273 273 274 274 275 275 275 275 275 275 277 279 280 281
Wind_Speed
2 2 3 3 1 1 2 4 2 2 4 3 2 1 1 1 2 2 1 2 1 2 3 4 5 6 7 8 10 9 5 3 1 3 3 4 8 14 16 18 19 19 19 18 16 14 13 13 12 12 9 8 8 8 10 10 10 10 10 11 11 11 10 9 10 10 11 12 14 14 15 15 14 14 13 13 14 13 13 13 11 11 11 10 10 9 9 9 10 12 13 14 15 16 16 16 16
2 2 2 2 2 2 1 3 3 3 5 2 2 1 1 2 1 4 6 3 4 3 5 10 11 11 11 11 9 7 7 4 3 3 2 8 8 15 20 19 21 22 21 20 18 17 16 15 13 13 13 12 11 12 12 10 10 10 10 10 11 11 11 10 10 10 11 12 13 14 15 16 16 15 14 15 15 14 14 14 13 13 13 13 12 11 11 11 12 13 14 14 15 16 16 17 17
2 3 1 2 3 3 1 4 2 1 4 1 3 3 1 1 3 6 7 3 6 8 8 8 8 6 5 6 4 4 3 3 6 1 3 12 8 12 20 19 22 22 22 22 21 21 20 18 16 15 16 16 15 15 14 13 12 11 11 11 10 10 11 11 12 12 12 12 13 14 15 16 17 16 15 16 17 17 15 15 15 16 15 15 14 14 14 14 14 15 16 16 15 15 16 17 17
1 2 0 2 2 4 3 4 2 4 3 3 2 4 1 3 7 6 6 2 2 5 4 5 5 3 4 8 4 3 2 1 6 4 2 9 8 10 17 19 21 21 23 24 23 23 23 21 20 20 19 19 18 18 17 17 16 14 14 14 13 10 11 12 11 13 13 14 13 14 15 16 16 15 15 16 18 19 17 17 18 18 18 18 16 16 16 16 16 17 17 17 17 17 17 17 17
1 2 0 2 2 1 3 3 2 4 2 4 2 4 4 5 7 5 3 3 2 2 4 4 4 2 4 6 1 2 1 2 5 8 5 6 9 11 17 19 20 22 23 24 24 24 24 23 22 22 22 22 21 20 19 19 19 18 17 17 16 14 14 13 12 13 14 14 14 15 15 15 16 15 16 15 17 18 18 19 19 19 19 19 19 19 19 18 18 19 19 19 18 18 18 18 18
2 4 3 3 2 1 3 2 2 1 4 5 3 5 5 5 6 4 2 5 6 5 3 4 6 4 4 4 4 2 2 0 3 6 5 7 13 16 18 19 20 22 23 24 25 25 25 25 25 25 24 24 23 22 21 21 21 20 19 18 18 17 17 16 15 15 15 15 15 15 16 16 16 17 17 16 17 17 18 20 20 20 20 20 20 21 21 19 19 20 21 21 20 21 20 19 20
2 3 3 4 2 2 3 3 4 2 2 4 4 4 5 6 5 6 4 3 5 7 5 5 8 9 4 2 4 4 6 7 4 5 7 10 16 18 18 19 21 23 23 24 26 26 26 26 27 27 26 26 25 25 24 23 23 22 21 20 20 19 19 18 18 17 16 16 16 16 17 16 17 18 17 17 18 18 18 19 21 22 20 20 20 21 21 20 21 22 22 22 22 23 22 21 21
2 2 1 3 2 3 4 3 3 2 1 2 3 3 4 6 5 6 2 0 2 3 4 4 5 7 2 1 4 2 9 10 7 8 9 13 17 17 18 19 21 23 23 24 25 26 27 27 27 27 27 27 27 27 26 26 25 24 23 23 22 21 20 20 19 19 18 17 17 17 18 17 17 18 17 18 19 19 19 20 22 22 21 22 22 22 22 22 23 23 23 23 23 23 23 22 22
3 2 1 3 2 3 3 2 0 2 2 2 2 2 3 4 4 5 3 3 3 3 1 6 2 5 3 5 4 2 5 7 8 11 12 15 17 17 18 19 21 21 22 23 24 25 26 26 26 26 27 27 26 26 26 27 26 26 25 24 24 22 22 21 21 20 19 19 18 18 19 19 18 18 18 18 18 19 20 21 21 21 22 22 23 24 24 24 23 24 24 24 24 24 23 22 22
3 2 1 2 3 3 3 0 1 1 2 3 2 3 3 3 4 4 5 3 2 4 0 3 3 7 7 5 3 0 2 4 9 12 15 17 17 17 18 19 20 20 21 22 23 24 25 25 25 26 25 26 25 25 25 25 26 26 26 25 24 23 23 23 22 21 20 19 19 19 19 19 19 19 19 19 19 19 19 21 22 22 23 22 22 23 25 24 23 23 24 25 25 24 24 24 23
1 4 2 4 4 3 2 3 3 2 3 4 2 4 4 3 5 5 5 5 2 4 3 2 6 7 7 3 2 1 1 4 9 12 14 16 16 17 18 19 19 19 20 21 22 23 24 25 25 25 25 25 25 25 25 25 25 25 25 25 25 24 24 23 23 22 22 21 20 20 19 19 18 19 19 20 20 20 20 20 21 22 24 24 23 23 24 25 25 24 24 24 25 25 25 25 24
2 3 4 4 3 3 3 4 3 3 5 4 1 3 2 3 5 6 6 6 3 4 4 0 5 6 5 2 2 2 3 5 9 12 13 15 16 16 16 17 17 18 20 20 21 23 24 24 25 25 26 26 26 26 26 26 26 26 25 25 24 24 24 24 24 23 22 22 22 22 21 20 19 19 20 20 21 21 22 22 22 22 23 24 25 25 25 26 27 26 26 26 25 26 27 28 27
3 1 5 3 2 3 4 5 3 1 5 2 2 2 2 3 3 7 7 5 3 5 2 2 6 6 4 2 1 1 2 5 9 12 13 14 15 15 15 15 16 17 19 20 21 22 23 24 25 25 26 26 25 25 25 26 26 26 25 25 25 25 24 24 24 23 23 23 23 23 22 21 21 20 20 21 22 23 23 24 24 23 23 23 25 26 27 27 28 27 28 29 28 28 29 30 29
3 3 5 3 1 3 4 3 1 2 2 4 2 2 3 3 2 5 7 6 1 4 1 3 6 5 2 2 0 2 4 5 9 12 13 14 13 13 14 15 16 17 18 19 21 22 23 24 25 25 26 26 26 26 26 26 25 25 25 25 26 25 25 24 24 24 23 24 24 24 23 22 22 21 22 22 22 23 24 25 25 25 25 24 24 25 27 29 30 30 30 31 30 30 30 31 31
3 2 4 4 2 2 3 2 2 4 4 4 1 1 5 2 1 3 4 6 3 2 2 3 3 1 4 6 4 5 7 8 10 12 13 14 13 14 14 15 16 17 18 19 21 22 23 24 24 25 25 26 26 27 27 27 27 26 26 26 26 26 26 25 25 24 24 25 25 25 24 24 23 22 23 23 23 23 24 25 25 25 25 25 26 25 26 28 30 32 32 31 31 31 32 32 33
3 3 5 4 2 2 2 1 3 3 4 4 2 3 6 4 2 3 2 3 3 4 3 1 3 1 4 5 6 9 10 10 11 12 13 13 14 15 15 16 17 18 19 19 21 22 23 23 24 24 24 25 26 26 27 28 28 27 27 27 27 27 27 26 26 26 26 26 26 26 26 26 26 26 26 26 26 25 25 25 25 25 25 25 26 26 26 27 28 31 33 33 32 33 34 34 34
3 4 5 3 2 3 3 3 4 4 4 4 2 2 5 3 3 3 2 6 5 4 4 1 4 3 3 4 9 12 10 10 11 11 11 12 13 15 16 17 17 18 19 19 20 21 22 23 23 23 23 24 25 26 27 28 28 28 29 28 28 29 28 28 28 28 28 28 28 28 28 29 29 29 29 29 29 28 27 27 27 26 25 25 25 26 26 27 27 28 31 33 35 35 35 35 35
5 3 4 2 3 3 4 6 7 4 3 5 2 4 7 4 3 3 4 8 5 5 5 3 5 6 5 8 11 11 9 9 10 10 12 12 14 15 17 18 19 19 19 19 19 20 22 22 21 21 23 24 25 26 27 28 29 29 29 30 30 30 30 31 30 30 30 30 29 29 30 31 31 31 31 31 32 31 30 30 30 29 29 29 28 28 27 27 27 28 28 31 34 35 35 36 37
4 3 4 1 5 3 4 6 6 3 3 4 2 5 6 6 7 5 3 1 2 6 4 4 5 4 4 7 9 8 9 10 10 13 15 14 14 14 15 16 19 19 19 19 18 19 20 20 20 21 23 24 25 26 27 28 29 30 30 30 31 31 32 32 32 32 31 31 31 31 32 32 33 33 32 32 33 33 33 33 33 32 32 32 32 31 30 29 29 30 29 28 30 33 35 37 39
2 4 3 4 6 4 4 5 7 5 5 5 3 4 3 3 6 4 5 6 4 4 5 2 3 5 4 4 6 8 8 10 12 15 15 13 12 12 13 14 16 17 16 16 15 16 17 17 18 20 22 23 24 25 27 28 29 30 30 31 31 32 32 33 33 33 33 33 32 32 32 32 33 33 34 34 34 34 35 35 35 35 35 35 35 34 33 33 33 33 32 30 30 32 34 36 39
1 3 3 5 4 3 5 6 6 5 5 6 4 4 3 3 3 3 8 7 4 7 9 8 11 13 9 6 7 8 9 11 12 13 13 11 10 10 11 10 10 11 12 10 11 13 14 15 17 18 20 21 22 24 26 28 29 29 29 29 30 31 32 33 34 34 34 34 33 33 32 32 33 33 34 35 36 36 36 37 37 37 37 37 36 36 36 36 35 35 34 33 32 33 35 36 38
1 1 2 5 5 3 5 5 4 3 3 3 5 5 4 3 1 4 11 8 5 6 8 9 11 14 12 10 10 9 9 10 11 11 10 8 8 7 8 8 7 8 9 9 10 11 12 13 15 17 19 19 20 22 24 26 27 27 28 28 28 29 30 31 33 34 34 34 33 33 32 33 33 33 33 35 36 37 36 36 37 38 37 37 36 36 37 35 35 35 34 34 34 34 35 36 37
1 3 1 2 4 3 3 3 4 5 6 4 5 4 4 5 1 4 9 7 4 4 4 8 9 12 14 12 11 9 8 9 10 10 9 8 7 6 5 6 6 7 8 9 9 10 11 13 15 17 18 19 19 20 22 24 25 26 26 26 26 27 28 30 31 32 33 34 33 33 33 33 33 33 33 34 35 36 36 36 36 37 36 36 35 35 35 33 33 34 36 36 36 36 36 35 35
3 2 2 1 2 2 3 3 4 6 6 6 5 5 5 6 3 2 5 4 3 2 7 12 12 14 14 11 9 8 9 10 11 10 9 8 6 5 4 4 5 6 7 9 9 10 11 14 16 18 19 19 18 19 21 23 24 25 25 25 25 26 27 28 29 30 32 33 33 34 33 33 33 33 33 34 34 34 35 36 36 36 36 35 33 33 32 32 33 34 36 38 38 38 38 38 37
3 2 2 1 2 3 4 2 2 5 4 1 6 4 3 6 4 4 6 3 2 3 9 12 11 11 10 8 8 8 8 10 10 9 8 7 6 4 4 4 5 6 7 8 9 10 12 14 16 17 18 18 17 18 20 21 22 23 24 25 25 25 25 25 26 28 30 31 32 33 33 33 33 33 33 33 34 34 35 35 36 36 36 35 34 32 31 31 34 35 36 37 37 38 38 39 39
2 1 2 1 3 3 3 3 4 6 3 1 4 1 3 4 3 3 6 5 4 6 8 8 9 8 8 7 8 8 8 9 11 9 7 6 4 4 5 6 6 7 7 8 9 10 12 13 14 16 17 16 15 16 18 19 20 22 24 24 24 25 25 25 25 26 28 30 31 31 32 32 32 33 33 33 33 34 35 35 36 37 37 36 35 34 32 31 33 34 35 36 36 37 37 38 39
3 2 3 4 4 3 2 4 5 4 2 2 4 1 3 3 1 4 6 6 6 8 8 6 7 8 8 6 7 9 9 11 12 10 7 6 5 5 6 7 7 7 7 7 8 10 11 11 13 14 14 13 13 15 17 18 20 22 23 23 24 25 25 25 26 27 28 29 30 31 31 32 32 33 33 34 34 34 34 35 36 36 37 37 36 35 34 33 33 33 33 34 35 35 36 36 35
1 2 5 5 5 4 1 2 3 3 1 3 5 1 3 2 2 6 7 8 7 9 9 6 7 7 7 7 6 7 9 11 11 10 8 7 7 7 7 8 7 6 6 6 7 8 9 10 11 12 12 12 12 14 16 18 20 21 21 22 23 24 25 25 26 27 28 29 29 30 30 31 31 32 33 33 34 34 34 34 35 35 36 37 37 37 36 36 35 33 32 32 33 34 35 36 34
1 4 4 8 8 5 3 1 2 3 2 4 5 1 3 5 6 5 7 10 7 8 9 7 7 6 6 7 5 6 8 10 11 10 9 9 9 9 8 8 7 6 6 6 6 7 8 9 10 12 12 12 13 14 16 18 19 20 20 21 22 23 24 25 26 27 28 28 28 28 28 29 29 31 31 32 33 33 34 34 34 34 35 36 37 38 38 38 36 35 33 31 31 32 34 35 35
1 4 3 5 8 5 3 3 1 2 3 3 2 4 6 8 9 3 7 11 9 8 9 8 8 6 6 6 5 6 7 9 10 11 10 10 10 9 9 7 6 6 5 5 6 6 7 9 10 12 13 13 14 15 16 18 19 19 20 21 22 23 24 25 26 26 27 27 27 27 26 27 28 29 30 31 31 31 32 33 33 34 34 35 36 37 38 38 38 37 35 33 31 30 31 33 33
1 2 2 3 4 4 5 2 1 3 1 2 4 4 9 9 8 5 8 11 12 12 11 9 8 7 6 6 7 6 7 10 11 12 11 10 11 10 9 7 6 5 5 5 5 6 7 9 11 12 13 14 14 16 17 17 18 19 20 21 23 23 24 25 25 25 26 26 27 27 26 27 28 28 29 30 30 31 32 33 34 34 34 34 35 35 36 37 38 37 35 33 33 31 30 30 30
3 1 3 3 1 5 8 4 4 3 1 2 5 4 9 10 7 7 9 9 12 12 10 10 9 8 8 7 7 6 7 11 11 11 11 10 11 10 9 7 6 5 4 4 5 6 7 9 11 13 14 14 15 16 17 17 18 18 20 22 23 23 24 25 25 25 25 26 27 27 28 29 29 29 29 30 32 33 33 33 33 33 34 35 35 34 34 35 35 37 37 33 32 32 31 30 29
4 1 3 3 1 4 7 4 1 2 0 1 3 4 7 7 3 4 8 10 11 10 10 11 10 9 9 7 7 6 6 8 10 11 11 11 10 10 9 8 6 5 4 4 4 6 8 10 11 13 13 14 15 16 17 17 18 19 21 24 25 25 25 26 26 26 26 26 27 27 29 30 30 30 31 33 34 34 34 34 33 32 33 33 34 35 34 34 33 34 36 35 33 32 31 31 29
4 2 1 4 3 2 5 5 3 2 2 4 4 6 11 10 2 4 8 10 11 11 12 12 10 9 8 7 7 7 7 7 8 13 14 12 10 10 9 8 6 5 5 4 4 6 8 9 10 12 13 15 16 16 17 17 19 22 24 25 25 26 26 25 25 25 26 26 27 28 29 31 32 33 34 35 35 34 34 35 36 34 33 32 32 34 35 35 34 32 33 35 35 32 31 31 30
3 3 2 4 3 4 5 6 3 1 2 5 3 6 15 16 7 6 9 10 11 13 12 10 9 10 9 8 8 7 8 7 10 15 15 12 10 9 9 8 6 5 5 3 4 5 7 8 10 12 14 16 16 17 18 19 22 24 26 25 25 26 25 24 24 25 26 27 28 29 31 33 34 34 35 35 35 36 37 37 37 35 35 34 33 34 34 34 34 33 33 34 35 35 33 31 30
5 5 4 4 5 6 7 6 4 1 3 7 7 9 14 17 12 8 9 10 11 12 10 7 8 9 9 9 8 8 8 8 12 17 15 12 10 8 8 8 6 5 4 3 3 4 6 7 9 11 13 16 17 18 19 21 25 26 26 26 26 26 25 24 25 26 27 28 29 30 32 33 33 33 34 34 35 37 38 38 37 36 35 35 35 34 34 34 34 34 35 34 33 35 35 33 28
3 2 3 5 5 7 8 4 3 2 2 8 8 9 13 16 16 11 8 9 10 12 11 10 9 10 10 11 10 10 9 8 12 17 14 12 10 7 7 8 7 6 4 2 2 3 4 6 9 11 13 15 16 18 20 23 25 24 24 24 24 25 24 24 26 27 27 27 29 31 32 33 33 33 34 36 37 37 38 38 37 35 34 33 34 34 35 36 36 35 35 35 33 32 33 32 27
2 3 4 5 5 8 9 4 4 0 2 6 5 7 13 14 16 12 6 9 13 15 15 15 14 12 11 12 12 10 7 6 9 13 13 13 10 8 7 8 8 7 4 1 1 2 4 6 8 10 12 14 17 18 21 22 22 21 20 20 21 21 21 21 23 24 23 24 27 29 30 32 33 34 35 37 38 37 38 39 38 35 34 33 34 35 36 35 35 35 34 33 32 30 30 30 27
2 2 2 4 4 4 8 4 4 2 2 6 7 7 12 13 16 15 9 12 13 14 17 16 14 14 13 13 12 11 9 7 8 10 12 13 11 8 8 8 8 7 4 1 1 3 5 6 8 10 12 15 17 19 20 21 21 20 19 20 20 20 20 20 20 21 21 23 25 26 27 30 33 35 37 38 39 39 39 41 40 37 34 33 33 35 35 34 33 34 33 32 32 30 29 29 27
3 3 2 5 4 1 5 4 5 3 2 6 9 11 12 10 15 18 11 10 9 10 13 13 11 13 14 13 11 12 13 11 9 9 10 12 11 8 8 9 8 6 4 2 2 4 6 7 9 11 13 16 18 19 19 20 20 20 20 21 21 20 20 21 20 19 19 22 25 26 28 31 34 36 38 38 38 39 39 39 39 37 34 31 32 33 35 34 32 33 33 32 31 28 27 27 25
4 5 6 6 6 5 6 3 5 5 3 4 8 11 9 7 12 15 5 2 7 6 8 10 11 11 9 9 10 11 12 11 10 9 8 10 11 9 9 9 8 6 4 2 2 5 7 8 10 12 14 16 17 18 19 20 21 22 23 24 24 23 23 24 23 23 24 27 30 32 34 35 35 36 37 36 36 36 36 36 36 37 38 35 33 33 33 33 31 31 32 33 33 30 27 26 25
4 5 9 10 8 8 6 5 6 5 4 4 6 7 7 2 5 12 5 3 8 5 7 13 12 10 8 9 11 10 9 9 8 9 9 10 11 10 9 9 9 6 4 3 3 6 8 9 10 12 15 16 17 18 18 20 20 22 23 23 23 22 22 22 23 26 29 30 31 32 34 35 36 37 38 38 36 35 34 35 36 39 42 39 34 31 32 32 30 30 31 33 34 33 30 26 26
3 4 7 7 5 4 4 4 4 2 3 2 4 2 9 3 3 10 8 6 10 6 9 13 11 9 10 11 10 10 10 8 6 6 8 10 11 11 10 11 9 6 4 3 4 6 8 10 11 13 15 17 17 18 18 19 20 21 21 20 20 19 19 21 22 24 27 29 30 32 34 34 35 37 39 39 38 37 36 36 37 39 40 39 36 33 32 32 31 31 32 34 34 33 32 28 27
3 4 5 5 2 2 2 2 0 3 3 3 3 4 9 9 5 8 5 5 11 11 12 14 10 11 13 12 10 10 11 9 7 7 7 9 12 13 12 11 9 5 5 5 6 8 9 10 12 14 16 17 17 18 18 19 20 21 21 20 20 20 20 23 24 25 26 28 31 34 36 37 37 36 37 39 39 38 37 37 38 38 39 39 37 37 34 32 32 32 33 36 36 34 33 32 30
5 4 5 5 3 2 2 2 2 2 3 5 4 7 5 10 5 2 4 3 11 14 16 15 12 14 14 11 10 10 10 9 9 9 8 10 13 14 12 10 8 6 6 8 8 9 11 11 12 15 17 17 17 17 18 19 19 20 21 20 21 22 22 24 25 27 28 28 30 34 36 38 39 38 38 38 38 36 36 36 37 38 39 37 36 36 35 33 33 33 34 35 36 35 34 35 34
3 5 5 4 4 3 4 2 1 2 3 9 6 8 4 9 4 2 2 3 9 12 14 13 11 12 12 10 11 10 9 8 8 8 9 12 14 12 9 8 8 7 8 9 10 11 12 11 13 17 19 17 17 17 18 19 20 20 21 21 22 24 24 25 26 28 29 29 31 34 35 37 38 39 39 38 36 35 35 35 35 35 36 35 34 34 35 36 37 36 36 34 35 36 35 36 36
3 6 4 5 4 4 4 2 3 3 5 9 7 12 8 7 3 5 3 5 7 8 9 8 8 9 10 10 11 11 9 8 8 7 8 12 13 10 8 8 7 7 9 10 10 12 12 12 14 19 20 17 17 17 18 19 20 20 21 21 22 24 25 25 26 28 29 30 32 33 34 35 36 38 39 38 36 34 34 34 34 34 34 33 33 34 34 36 36 35 35 33 34 35 35 36 37
4 4 4 4 4 3 4 4 4 1 6 6 3 8 9 8 6 4 5 5 5 7 8 9 9 8 9 10 10 10 9 8 8 7 7 9 9 9 9 8 7 8 9 10 11 12 12 12 15 19 20 18 17 17 18 19 20 20 20 21 22 23 24 24 25 27 29 29 31 33 34 35 36 37 38 38 36 34 34 34 34 34 33 32 33 34 33 32 32 33 32 31 32 34 35 36 37
4 4 4 3 4 4 3 3 0 3 7 3 2 3 5 12 10 8 10 11 9 8 8 9 9 6 8 9 9 8 8 8 8 7 6 6 6 9 10 8 8 9 9 10 12 12 12 13 16 19 20 19 17 18 18 19 20 20 21 21 22 23 23 24 25 27 28 28 30 32 33 34 35 37 38 37 37 35 34 34 34 34 33 32 33 34 33 32 33 34 33 31 31 32 34 36 37
4 4 4 3 1 1 4 4 2 5 6 3 4 3 5 9 8 10 15 13 10 6 6 9 8 6 9 10 9 8 8 9 8 7 7 6 7 10 9 8 9 10 11 11 12 12 12 13 17 19 20 19 18 18 19 19 20 21 22 22 22 23 24 25 25 27 28 29 29 31 32 33 35 37 37 37 37 36 35 34 35 35 34 34 33 34 34 34 34 34 32 31 32 33 34 37 39
3 4 4 4 5 3 4 4 4 6 7 4 3 3 4 5 2 6 9 7 4 3 5 6 5 6 6 7 8 8 9 8 7 7 7 6 9 11 10 10 11 12 12 12 12 11 11 14 17 18 19 19 18 19 19 20 21 22 22 22 23 23 23 25 25 26 28 29 30 31 33 34 35 36 37 37 36 35 35 35 35 35 35 35 34 34 35 35 34 34 32 32 35 35 35 37 38
1 2 4 2 4 5 3 3 4 1 6 6 3 4 6 4 3 5 2 5 4 3 5 3 3 3 5 6 8 9 9 8 7 7 7 7 10 12 11 12 13 12 12 12 11 10 11 15 16 17 18 18 19 19 19 20 21 22 23 23 23 23 23 25 26 27 28 30 31 32 34 34 34 35 36 36 35 34 34 34 35 35 34 35 35 35 34 35 35 34 33 35 37 35 35 37 38
2 2 3 4 4 5 2 4 2 4 3 6 2 6 9 5 4 4 1 4 6 5 4 2 3 3 6 7 8 9 9 8 7 7 7 7 10 12 14 14 13 12 11 11 10 9 11 14 15 16 17 18 19 19 20 21 22 23 23 23 23 24 24 26 27 29 30 30 31 31 33 35 35 35 36 35 34 33 33 34 35 35 35 35 35 34 34 34 34 34 36 38 38 35 36 37 36
5 3 5 4 2 4 3 1 3 3 3 6 3 9 14 10 6 2 1 5 9 8 5 3 3 5 7 8 8 9 9 8 7 7 7 7 9 12 14 14 12 11 10 10 9 9 11 12 13 15 17 18 19 20 20 21 22 23 24 24 25 25 26 27 28 29 30 31 31 31 32 34 35 35 35 34 33 34 34 34 35 36 36 35 34 33 33 33 33 36 37 38 36 34 36 37 36
5 4 3 2 2 1 2 2 2 1 3 7 6 8 14 12 5 2 3 8 10 9 6 5 7 9 10 9 9 9 8 7 7 7 6 6 8 12 14 13 11 9 8 8 9 10 11 11 12 14 16 18 19 20 21 22 23 23 24 25 26 26 27 28 28 29 30 31 32 32 32 33 34 34 33 33 34 35 36 36 35 36 36 35 34 33 34 34 34 34 32 30 29 29 31 35 35
3 0 1 1 2 3 3 3 3 3 3 7 7 9 13 9 5 5 8 9 10 9 8 8 11 12 11 9 9 10 10 9 8 7 7 6 9 13 14 12 10 8 7 8 9 10 11 12 13 14 16 18 19 20 22 23 24 24 26 27 27 28 28 28 29 29 30 31 32 33 33 33 33 33 32 33 34 36 37 36 35 35 35 34 34 34 33 33 34 32 28 27 28 28 30 34 35
3 2 2 2 1 1 1 2 2 3 4 5 4 9 15 7 6 7 8 8 10 11 9 10 12 12 11 10 10 10 10 9 7 7 7 6 9 13 13 11 9 7 7 8 9 10 11 12 13 14 17 19 21 22 23 24 25 26 27 28 29 30 29 29 29 29 30 31 32 31 31 32 33 33 33 33 34 35 36 36 35 34 34 33 33 34 33 32 33 33 30 28 30 32 33 32 31
6 6 7 7 5 3 2 5 3 3 4 5 2 7 18 9 5 5 6 6 9 9 9 9 11 12 11 10 11 12 10 9 8 8 7 6 8 11 11 10 8 7 8 8 9 10 11 12 13 15 18 19 21 22 23 25 26 26 27 28 29 30 30 30 31 31 31 31 31 31 31 32 32 33 32 32 33 34 34 34 34 33 33 33 33 33 33 32 33 34 32 30 31 32 31 29 27
Wind_Direction
126 136 117 128 71 79 36 58 69 340 71 79 322 26 174 199 186 166 238 274 65 19 17 57 58 78 97 113 124 112 76 91 167 127 154 311 18 30 34 41 43 51 50 53 54 52 51 46 40 34 29 21 12 2 352 349 344 331 321 307 297 293 286 285 295 298 291 292 293 291 291 286 280 276 277 276 270 270 273 274 277 281 284 288 288 287 284 283 282 280 279 277 275 271 266 263 264
105 148 98 112 52 85 196 63 92 346 53 76 287 168 256 338 120 178 203 208 121 117 88 81 77 77 100 124 127 90 53 36 14 116 85 6 42 46 44 49 49 53 53 53 52 51 49 46 44 38 34 30 24 20 15 10 7 356 344 329 313 303 297 293 297 303 300 301 299 295 295 290 282 276 278 278 273 272 271 271 272 276 281 287 290 291 289 286 284 283 283 282 281 279 273 265 262
91 149 95 121 40 43 86 42 96 59 71 125 273 254 312 52 205 211 211 163 116 140 114 81 78 62 87 98 59 55 63 37 20 52 34 23 37 34 42 53 52 55 55 55 54 53 50 47 46 41 38 34 31 29 27 23 21 15 7 1 344 323 316 312 300 296 298 301 300 299 299 295 290 286 282 280 281 276 270 269 272 274 276 278 281 284 284 282 282 282 283 282 281 282 282 274 265
105 158 85 137 52 25 61 43 131 118 109 186 254 264 256 189 210 228 238 214 160 169 123 67 67 6 63 86 47 50 59 8 17 37 57 23 28 29 44 53 55 60 56 55 54 54 53 50 49 47 43 38 35 32 31 28 26 24 22 20 10 357 346 339 323 313 307 300 298 298 298 297 296 293 287 285 284 278 273 272 276 278 277 277 279 280 281 281 281 280 280 279 278 280 283 281 274
40 166 139 103 87 45 90 75 110 101 168 184 158 258 244 202 212 230 276 348 330 156 133 97 96 297 63 74 44 91 317 280 22 51 84 34 50 53 54 59 61 62 58 57 55 56 56 55 55 53 49 44 40 36 33 30 27 25 23 21 18 15 7 1 350 340 331 317 309 303 298 295 293 291 289 287 283 280 279 280 283 282 280 282 284 284 285 284 281 280 279 278 277 277 275 275 276
74 115 68 55 89 117 105 107 120 107 212 168 142 247 238 206 212 194 97 39 30 51 101 98 123 138 82 66 65 89 297 153 63 51 79 56 63 67 64 65 64 62 60 59 58 59 59 59 59 58 55 50 47 43 39 34 30 27 23 19 17 15 11 8 1 355 349 341 331 319 309 302 294 291 287 281 279 279 280 285 287 284 279 279 281 283 285 286 281 279 279 277 276 274 271 269 270
124 119 37 56 48 36 99 132 166 179 195 167 163 211 222 221 202 149 127 84 47 26 47 98 126 112 88 144 82 42 39 79 99 75 87 71 69 72 70 67 65 64 60 59 60 61 60 60 58 57 56 52 50 47 44 40 36 31 27 23 19 16 14 10 7 2 356 351 345 337 328 320 309 300 292 283 281 279 278 284 287 285 281 277 278 279 281 286 285 280 277 276 275 274 273 271 269
128 147 18 94 35 24 94 114 177 178 173 208 190 189 219 219 182 130 129 111 103 39 81 140 129 91 44 114 109 51 57 74 97 95 95 79 74 74 70 68 65 62 60 58 59 60 59 58 56 56 54 52 50 48 46 43 39 35 31 27 24 21 18 14 11 8 3 358 351 346 340 335 327 316 306 297 291 286 282 284 286 284 282 279 280 282 283 289 290 285 279 277 276 276 277 275 273
84 69 22 92 69 45 59 52 171 212 262 271 223 232 252 205 150 116 85 45 116 101 114 211 182 100 122 83 109 215 57 80 103 96 93 83 77 75 70 66 62 59 57 55 56 57 56 55 54 53 52 50 46 45 43 41 38 35 33 30 27 24 21 18 15 12 9 6 0 356 350 345 339 332 324 314 304 295 289 287 287 283 281 280 281 282 284 288 289 288 285 281 279 278 279 276 273
71 25 141 88 77 66 33 48 272 236 253 286 258 244 248 191 121 103 105 95 133 102 55 234 106 119 134 111 132 177 46 106 107 93 89 86 80 77 72 65 60 56 54 52 53 52 52 51 51 50 48 46 42 39 36 34 31 29 28 26 25 23 21 19 17 14 11 8 6 3 358 354 348 342 336 330 322 311 302 295 290 284 282 282 281 282 284 287 287 286 285 283 282 279 279 277 272
66 350 95 79 74 107 174 194 261 255 277 310 295 258 223 174 110 84 99 121 121 123 166 71 95 134 117 108 189 126 111 118 98 91 88 87 84 80 74 67 62 57 54 53 51 48 47 46 45 45 42 40 36 33 29 27 24 21 20 19 19 18 17 16 15 13 11 9 6 3 359 358 355 351 346 339 334 326 318 310 301 290 284 283 283 285 286 288 288 286 284 283 283 280 277 276 274
99 339 68 83 112 167 186 164 215 252 311 334 10 290 177 130 113 116 119 125 117 148 198 86 142 146 98 122 205 141 118 109 99 95 93 91 87 82 78 72 65 60 57 53 50 46 42 40 39 39 36 34 30 28 25 23 21 19 17 15 14 13 13 12 11 10 9 7 4 2 359 358 357 355 353 348 343 336 329 323 318 305 293 287 285 285 284 286 288 286 283 282 281 280 278 276 274
113 138 83 86 142 145 142 141 199 268 328 293 186 291 76 73 119 148 134 107 112 157 231 280 157 119 94 189 210 160 144 117 111 103 100 94 91 89 84 76 67 62 57 51 47 43 39 36 35 34 32 29 26 25 24 24 23 21 20 17 16 13 11 9 8 8 6 5 2 360 358 358 358 357 356 354 350 346 341 336 331 322 309 298 292 288 285 283 284 284 283 282 280 279 279 277 274
133 155 101 106 78 111 137 131 184 150 249 256 240 302 36 46 133 153 124 103 215 173 303 326 134 106 107 167 289 228 199 150 124 110 105 99 99 96 87 77 67 61 55 48 43 39 36 33 32 30 28 26 24 24 25 25 25 23 22 20 18 16 13 10 7 5 4 3 0 358 357 355 355 356 356 355 353 350 347 344 340 334 323 312 304 298 292 285 282 281 281 281 280 278 277 276 274
134 137 90 106 28 51 150 148 151 144 199 239 240 97 70 35 118 106 112 138 207 262 322 1 83 148 171 162 196 204 174 155 133 118 111 104 104 97 86 77 64 56 51 45 41 37 33 30 28 26 25 24 23 23 25 25 25 23 22 20 19 18 16 13 8 5 2 360 358 358 356 354 352 352 352 351 351 350 349 348 344 341 334 324 316 310 304 295 286 280 277 278 278 277 275 274 273
117 112 70 87 58 83 158 151 132 137 220 222 210 115 83 346 18 85 309 155 147 355 7 6 354 318 159 164 170 155 153 150 135 125 117 109 101 91 81 72 63 54 47 42 39 35 32 28 25 24 24 23 22 23 24 23 23 22 21 20 19 18 16 13 11 7 4 1 359 357 354 352 350 349 349 347 347 347 348 347 345 343 341 333 325 320 316 309 299 289 280 275 275 275 274 272 272
60 82 66 71 118 145 174 169 169 171 228 240 248 141 110 325 340 119 359 54 92 30 38 4 339 28 91 123 129 135 148 151 141 129 115 105 90 76 66 59 54 49 44 39 36 32 29 25 24 24 24 23 22 22 22 22 22 21 20 20 18 17 15 13 12 10 8 5 1 358 356 352 349 347 346 346 344 343 342 341 340 339 338 335 332 329 324 318 313 304 290 278 276 275 272 272 272
53 84 83 93 158 161 172 181 197 175 195 228 224 149 137 175 223 169 57 45 69 63 37 9 22 32 58 104 122 133 138 138 139 122 101 83 67 58 49 44 44 41 37 34 32 29 25 25 27 27 25 23 22 21 22 22 22 21 21 20 20 18 16 15 13 12 10 7 4 1 358 354 351 347 345 344 342 340 338 337 337 335 333 332 331 331 328 325 323 318 306 290 284 279 272 271 271
81 113 84 182 196 182 186 179 191 184 184 206 189 152 155 176 174 155 106 120 134 89 37 357 39 39 68 109 124 130 121 118 120 107 90 72 61 53 43 41 41 37 32 29 28 27 24 27 29 28 25 22 22 23 23 24 23 22 22 21 20 18 17 15 13 12 11 9 7 4 0 356 353 349 346 344 340 338 336 335 334 332 331 331 331 330 328 328 327 324 320 310 301 290 278 271 269
128 113 80 231 209 194 216 186 197 221 188 173 181 162 156 182 167 152 145 167 197 161 165 161 173 194 176 164 145 132 122 113 108 99 89 78 68 58 47 42 40 39 34 29 29 27 27 31 31 29 26 22 22 24 24 23 22 21 21 20 19 18 16 15 13 12 11 9 7 5 1 357 354 350 347 345 342 339 337 335 333 332 331 331 332 331 328 326 326 325 324 322 318 309 292 277 270
107 102 138 210 177 166 215 196 207 220 179 166 157 138 144 193 177 152 145 149 240 227 200 188 184 181 177 187 169 153 138 115 106 99 96 92 82 73 61 52 50 47 40 39 41 35 35 39 35 32 29 27 24 23 22 20 18 18 20 20 18 17 15 13 12 10 9 8 6 4 359 356 354 351 348 345 344 342 339 337 335 335 333 332 332 332 329 327 327 327 326 325 324 318 307 290 275
53 4 159 184 140 158 227 208 204 169 133 140 133 146 161 154 143 164 164 174 233 237 214 198 176 168 166 169 168 164 143 117 111 112 112 114 107 98 79 68 69 58 48 51 47 41 47 47 38 35 32 30 27 25 23 19 18 19 20 20 18 17 14 12 11 9 8 6 4 2 358 355 353 350 348 345 343 342 340 338 336 335 334 333 332 331 330 329 328 327 327 325 323 319 312 300 283
50 326 10 214 187 168 205 206 204 146 130 164 169 170 130 118 216 202 190 207 271 286 184 158 149 154 156 156 160 159 142 131 130 130 128 129 125 114 95 73 65 55 51 51 48 49 53 48 38 34 30 27 27 25 22 18 18 19 20 20 19 17 14 11 10 8 6 4 2 0 356 353 351 349 346 344 342 340 338 336 334 333 333 332 330 330 329 329 327 325 324 324 322 318 314 309 297
96 278 327 256 233 190 193 195 189 158 165 195 164 138 138 163 188 175 213 241 335 354 115 126 136 146 151 153 159 156 149 148 145 139 129 121 114 115 114 87 69 59 53 49 50 53 49 42 37 32 28 25 24 22 18 16 17 18 19 19 19 17 14 11 8 6 4 3 2 360 357 353 350 347 344 343 341 339 336 334 332 331 329 328 328 327 327 325 324 323 322 321 321 318 316 313 308
94 241 291 98 252 254 254 242 180 186 198 166 110 118 215 206 171 161 213 223 114 117 112 123 136 142 155 158 158 158 156 162 160 153 140 125 113 113 124 106 83 67 55 49 51 52 46 39 36 31 27 24 22 19 15 14 15 17 17 18 18 16 14 11 7 4 3 1 0 359 357 353 349 345 342 340 338 337 335 333 331 329 327 326 324 323 323 321 320 321 321 320 320 319 317 314 311
194 218 283 274 277 273 253 236 225 214 207 99 117 57 277 215 177 203 207 185 161 133 122 134 140 149 165 162 166 168 169 177 174 166 157 147 131 113 114 104 85 70 54 50 53 49 45 40 35 30 26 23 20 16 13 13 15 16 17 17 16 15 13 10 6 4 1 360 359 358 356 352 349 345 340 338 336 334 333 331 329 327 325 324 322 319 318 317 316 317 318 318 319 318 316 315 313
214 228 257 260 290 292 213 209 226 215 208 195 180 306 284 234 233 246 209 177 164 138 140 156 151 165 172 169 179 174 178 181 173 166 164 168 158 130 114 107 93 77 61 57 57 49 46 43 35 28 25 24 19 14 13 16 18 18 17 15 15 14 12 9 6 3 360 358 357 356 355 352 348 344 340 337 334 331 330 329 327 326 323 322 320 317 315 313 312 312 313 315 316 317 315 313 314
271 308 294 298 328 322 271 196 207 183 197 164 136 79 295 286 271 235 188 165 162 151 162 178 174 184 179 178 184 181 188 180 170 167 164 167 160 144 129 115 101 85 74 69 61 53 51 44 33 26 26 24 18 16 18 20 21 19 17 16 15 13 12 9 5 1 358 355 354 353 352 350 347 343 340 336 333 330 327 325 324 323 321 320 318 315 313 311 309 308 308 310 311 313 313 312 312
5 32 338 315 356 2 330 322 202 168 199 170 127 344 268 219 241 238 157 153 154 159 175 189 191 198 191 187 187 194 196 181 178 178 168 162 155 143 131 119 106 97 89 79 69 63 56 40 29 28 30 27 22 23 23 22 21 19 18 17 16 14 12 8 4 359 355 353 351 350 349 348 345 342 339 335 332 328 325 324 321 320 318 317 316 313 311 309 308 307 306 306 308 310 311 312 312
309 40 42 326 357 352 312 356 47 148 189 180 134 287 256 228 239 226 148 154 149 172 193 194 197 200 197 195 195 204 203 192 187 182 173 160 151 138 126 122 114 107 97 89 81 73 57 36 31 34 34 30 28 26 22 21 20 19 17 16 15 13 10 6 3 358 354 352 349 348 348 346 343 340 338 335 333 330 326 324 321 318 316 315 313 311 309 307 305 304 304 304 305 307 308 310 312
343 9 54 9 352 291 286 325 136 156 221 142 119 261 261 259 252 190 167 166 163 185 199 194 200 199 198 201 199 207 207 199 187 177 174 160 147 139 133 134 130 119 103 96 86 72 49 34 34 37 35 31 29 24 20 20 19 18 16 14 13 10 8 4 1 358 355 352 349 348 347 344 342 341 339 336 332 330 326 323 321 318 315 313 309 307 305 303 303 301 301 301 301 303 304 305 308
33 346 311 343 322 279 300 296 185 189 316 104 138 243 269 276 263 182 170 176 180 193 199 196 201 198 197 205 201 205 212 206 194 182 177 163 152 147 148 150 144 130 107 99 85 62 40 33 36 36 35 30 26 21 19 19 18 16 15 13 12 8 5 3 1 359 356 353 350 348 347 345 344 342 338 333 329 327 325 322 320 318 316 313 308 305 302 299 298 298 297 297 297 299 300 302 303
3 60 253 278 258 299 316 322 239 218 152 153 191 243 273 282 283 174 176 185 193 203 206 203 204 200 199 203 203 201 207 212 209 201 186 170 164 157 155 156 147 135 117 104 77 49 33 32 35 36 34 26 22 18 17 18 16 14 14 12 9 5 2 1 360 358 356 353 351 349 348 346 343 339 335 332 330 327 325 322 319 318 316 313 308 304 300 297 294 293 293 294 293 293 295 298 300
324 14 260 258 241 269 299 306 334 46 167 226 240 245 260 269 250 176 198 194 198 211 214 209 203 202 203 201 205 205 202 206 211 203 190 178 172 164 160 156 147 137 125 105 67 39 30 30 32 33 28 21 17 14 14 14 13 13 12 10 6 2 0 359 357 356 354 352 351 350 347 344 340 338 337 335 332 328 324 321 318 318 317 314 310 305 299 297 294 289 287 289 290 289 290 292 296
250 276 280 291 268 223 247 270 298 57 211 234 233 250 263 270 258 199 206 201 205 218 218 214 206 203 206 203 205 208 203 206 207 196 186 181 176 168 165 158 149 142 130 104 64 34 26 28 28 26 20 14 10 9 10 9 10 11 9 7 4 1 358 356 355 354 354 353 352 348 344 342 340 339 337 335 331 326 323 320 317 316 315 314 310 306 301 297 293 289 285 284 286 286 286 287 291
202 229 217 260 277 259 242 242 252 222 257 254 231 243 263 272 269 232 208 203 213 228 229 221 213 208 208 207 208 207 206 210 204 192 183 183 179 171 169 160 150 148 137 103 55 26 21 23 21 18 12 7 3 3 5 6 10 9 6 4 1 357 354 352 353 354 354 352 349 345 342 340 338 336 334 331 328 324 321 318 315 313 312 311 308 305 302 297 292 289 286 283 282 281 284 285 287
162 183 220 247 250 274 273 252 266 168 211 263 234 234 258 266 269 254 207 199 219 230 233 227 216 213 210 208 209 204 206 210 200 191 186 187 182 173 170 159 157 162 154 106 39 15 15 15 10 7 3 359 357 360 3 6 9 6 2 0 355 352 350 349 351 351 351 348 344 341 339 338 336 333 330 328 326 322 319 317 315 312 312 309 305 303 301 297 291 287 285 282 278 276 278 282 285
150 197 240 273 232 256 278 280 310 105 176 267 242 234 256 259 268 263 184 187 222 219 222 226 216 216 215 208 208 205 206 206 196 192 190 192 186 177 174 165 166 172 168 131 13 1 8 5 358 356 352 351 352 356 360 3 5 1 356 354 349 346 345 346 344 344 344 340 338 337 336 335 333 331 329 327 325 322 319 317 315 312 312 310 306 304 302 298 291 286 282 279 275 271 271 275 281
156 175 206 278 249 267 291 304 342 1 167 270 275 261 260 257 265 263 209 198 225 218 217 223 214 215 217 208 204 199 200 199 191 193 196 196 187 177 174 171 174 180 183 215 335 348 358 353 344 343 342 344 347 350 355 357 357 355 352 350 348 343 341 340 336 336 336 332 331 330 331 332 332 331 330 329 327 325 321 318 315 312 311 310 307 305 303 299 292 286 280 275 273 270 268 269 273
181 179 193 263 271 297 284 303 343 323 234 270 288 278 263 252 259 263 237 211 233 228 225 230 219 220 219 210 204 197 198 196 189 194 199 196 190 183 177 174 181 190 203 244 322 340 344 340 331 332 335 339 342 344 348 350 349 349 348 348 347 343 338 335 332 330 328 326 327 329 331 332 332 331 330 330 327 323 321 318 315 311 308 308 307 303 301 298 291 285 280 275 271 268 267 267 267
247 206 203 242 264 242 238 286 339 323 306 314 318 299 269 229 240 258 270 259 258 239 231 238 230 229 222 207 207 203 201 195 187 191 193 196 194 189 182 180 188 199 215 251 318 335 332 329 325 325 329 333 336 339 341 344 345 345 346 347 346 343 338 335 332 328 326 327 330 331 332 332 332 330 328 327 323 320 318 316 311 306 304 303 303 298 296 296 292 287 282 276 270 264 265 267 267
295 229 209 225 247 253 266 324 353 345 327 344 7 325 278 191 218 256 284 299 262 228 223 239 231 222 214 209 208 202 204 200 191 185 182 191 193 188 190 191 198 208 223 254 303 322 320 319 320 321 325 329 332 335 337 340 342 343 345 345 342 338 332 328 327 324 323 325 326 327 327 328 329 328 327 326 323 319 315 311 307 303 302 302 300 296 291 293 295 294 289 280 270 263 262 265 266
298 243 197 204 222 261 288 343 7 301 264 291 61 320 274 276 186 248 259 259 261 247 235 242 234 220 215 214 207 194 199 198 189 181 175 186 193 194 199 198 202 216 233 251 285 306 309 311 316 321 325 328 330 331 334 336 338 340 342 340 335 328 318 315 316 315 316 319 320 321 323 324 326 326 326 325 322 318 314 310 307 304 302 300 297 295 291 290 291 293 293 288 278 267 260 260 261
244 226 133 130 147 240 236 83 7 247 272 278 161 167 273 281 238 248 267 262 269 269 253 247 231 223 222 214 203 195 196 188 177 178 178 189 197 199 201 200 205 225 243 251 274 296 303 307 316 323 326 327 328 328 330 332 334 335 336 334 329 322 314 311 313 314 315 317 319 321 323 323 324 324 323 322 320 316 313 310 309 306 302 298 295 293 291 289 288 289 291 292 289 279 264 257 257
242 192 113 102 118 169 141 102 266 288 352 291 205 148 264 277 249 292 358 264 263 267 260 254 233 222 223 211 200 197 193 181 174 177 183 193 198 201 203 202 212 233 246 253 270 292 303 307 314 322 326 327 327 326 326 327 330 331 331 329 323 319 315 312 314 315 316 317 318 319 322 322 321 321 321 320 317 313 311 309 309 307 303 298 295 292 290 290 289 288 288 289 290 288 278 265 255
222 128 96 60 66 67 68 65 338 34 328 271 228 156 220 275 232 138 31 246 249 257 258 257 239 224 217 203 199 194 186 180 179 179 183 191 195 199 205 212 225 239 246 254 270 291 303 306 312 320 326 329 327 325 323 323 328 328 327 326 320 316 316 315 316 316 317 318 317 318 319 318 317 318 318 317 314 310 309 309 308 306 302 297 294 291 291 291 290 288 286 286 286 288 289 278 261
119 92 55 20 32 46 48 44 61 51 280 270 231 174 188 277 249 159 186 216 219 238 259 266 247 223 205 199 199 191 182 179 178 178 185 193 197 201 212 226 237 244 247 255 274 294 302 306 315 320 325 330 327 324 321 321 326 325 323 322 316 313 315 315 315 315 316 317 316 315 315 314 313 314 315 314 313 310 308 307 306 304 300 294 291 290 290 291 290 288 285 285 286 285 289 287 275
91 76 49 6 337 12 19 357 45 60 258 271 241 176 186 244 247 188 230 249 226 226 252 262 248 225 203 199 196 187 181 176 172 177 188 196 206 212 218 231 244 248 253 265 281 296 302 307 319 321 324 330 328 323 320 320 322 321 319 316 312 313 313 313 312 311 313 313 312 311 311 310 310 310 311 311 310 310 308 305 304 302 297 292 290 288 288 289 290 289 286 284 285 286 286 287 283
86 90 75 37 334 353 345 310 48 222 246 248 118 134 217 245 247 241 247 256 253 232 231 251 252 227 203 197 190 180 175 175 174 177 187 193 207 213 216 231 248 257 267 278 289 299 303 310 321 322 323 328 327 322 321 321 320 318 317 314 313 314 312 311 310 308 309 308 307 307 306 306 306 306 307 307 308 309 307 304 301 299 295 291 290 287 285 287 289 287 285 283 283 285 286 285 285
145 147 128 129 113 340 280 269 269 269 268 231 128 110 270 271 261 237 235 245 258 249 241 257 258 222 203 194 181 174 175 180 178 179 188 193 205 211 216 235 252 263 273 281 290 299 304 314 323 324 323 326 325 324 324 320 318 316 315 314 314 314 312 311 309 307 306 305 303 302 301 300 300 301 302 302 305 306 304 301 298 295 292 289 288 287 285 285 287 284 282 284 285 284 286 287 286
174 164 137 149 155 183 238 239 249 288 302 270 157 137 249 272 258 216 234 261 281 285 272 269 258 220 191 174 167 171 181 184 180 184 191 199 205 209 217 236 249 260 270 281 291 299 308 317 325 324 321 324 326 325 321 317 315 314 313 314 314 313 311 309 307 305 304 302 300 298 296 296 295 296 298 299 301 303 301 299 296 292 289 288 286 285 284 284 284 282 282 285 285 284 286 287 288
219 137 110 174 184 170 206 241 219 292 318 284 207 206 230 236 229 199 236 300 291 308 305 275 234 189 149 161 176 179 185 185 185 189 195 207 209 210 221 235 246 258 270 282 293 303 312 319 324 321 319 323 324 319 314 312 312 312 313 314 314 314 312 309 307 305 303 301 298 296 294 293 293 294 296 298 298 299 299 297 295 290 287 286 285 283 283 281 280 280 283 283 281 283 286 286 289
165 132 177 217 184 134 149 284 334 70 299 274 261 268 275 307 286 204 144 299 274 287 291 230 204 174 168 188 188 185 189 186 187 191 195 206 208 213 224 234 245 258 272 285 296 306 313 319 320 319 319 321 317 311 309 311 313 313 314 316 316 315 313 310 308 306 304 301 297 294 293 293 293 294 295 296 296 296 296 295 293 290 287 285 284 282 280 279 279 280 281 280 280 282 285 285 287
127 178 215 197 135 97 109 279 342 44 261 270 290 280 283 298 296 257 42 275 259 256 241 206 211 202 201 206 193 190 192 186 192 198 202 207 208 217 226 236 246 259 275 286 298 308 313 317 316 315 315 313 309 309 312 315 316 316 316 316 316 315 313 311 309 307 305 301 297 295 294 292 293 294 295 295 294 293 294 293 291 289 287 284 281 280 279 279 280 280 278 277 278 280 282 283 284
123 193 215 127 148 153 102 161 244 207 244 271 285 289 281 270 253 244 234 231 240 243 210 188 212 211 211 207 193 192 191 189 197 199 206 212 212 222 228 235 246 258 271 283 300 308 310 315 315 311 307 304 307 312 316 318 318 316 315 316 316 315 314 312 310 308 305 301 299 297 295 293 293 294 294 294 292 291 291 291 290 289 287 283 280 278 278 278 278 278 277 277 280 281 280 281 283
75 153 343 49 170 173 160 173 187 177 225 270 295 306 287 260 190 196 218 212 223 228 203 200 214 213 210 201 190 193 193 194 197 194 205 213 217 225 230 236 246 254 267 284 298 302 308 313 310 306 304 308 315 319 320 320 319 318 317 317 318 317 316 313 310 309 306 302 301 298 296 295 294 294 294 293 291 288 288 288 288 287 284 281 279 277 276 276 275 275 280 281 282 285 283 281 281
156 185 208 224 180 141 219 219 163 166 222 253 285 290 278 260 150 189 210 202 217 219 203 207 217 215 209 198 192 195 195 193 191 194 203 210 221 228 231 238 245 252 268 284 294 299 306 305 302 307 313 319 323 323 322 320 319 320 319 319 320 318 316 314 311 309 306 304 302 299 297 297 295 293 292 292 290 288 287 286 285 284 282 279 278 276 275 275 273 274 279 283 283 282 280 277 278
179 194 197 197 185 153 238 253 215 174 225 225 165 271 271 262 139 175 188 191 221 217 198 206 219 215 205 196 197 195 192 192 189 195 203 205 220 227 230 235 237 249 268 281 292 296 298 301 310 319 321 321 321 320 319 319 319 319 318 319 318 317 316 315 313 312 309 306 304 301 299 298 295 292 291 290 289 288 287 285 282 281 280 279 278 275 273 273 273 273 276 280 280 277 276 278 279